Rothschild, WI

6:06 PM CDT on July 29, 2016 (GMT -0500)
Wausau Downtown

Weather History for KAUW - April, 2013

Change the Weather History Date:

Monday, April 15, 2013

  Actual Average Record
Temperature  
Mean Temperature 41 °F 44 °F  
Max Temperature 47 °F 55 °F 85 °F (2002)
Min Temperature 34 °F 33 °F 5 °F (1928)
Degree Days  
Heating Degree Days 24 21  
Month to date heating degree days 476 366  
Since 1 July heating degree days 7552 7587  
Cooling Degree Days 0 0  
Month to date cooling degree days 0 0  
Year to date cooling degree days 0 0  
Moisture  
Dew Point 31 °F    
Average Humidity 75    
Maximum Humidity 100    
Minimum Humidity 49    
Precipitation  
Precipitation 0.12 in 0.09 in 1.69 in (1973)
Month to date precipitation 2.45 1.24  
Year to date precipitation 7.78 4.94  
Snow  
Snow 0.00 in 0.10 in 9.20 in (1993)
Month to date snowfall 6.7 2.5  
Since 1 July snowfall 75.4 57.8  
Snow Depth 1.00 in    
Sea Level Pressure  
Sea Level Pressure 29.73 in    
Wind  
Wind Speed 11 mph (SSW)    
Max Wind Speed 25 mph    
Max Gust Speed 36 mph    
Visibility 7 miles    
Events Fog , Rain    
T = Trace of Precipitation, MM = Missing Value Source: NWS Daily Summary

Daily Weather History Graph

Daily Weather History Graph

Search for Another Location

Airport or City:

Trip Planner

Search our weather history database for the weather conditions in past years. The results will help you decide how hot, cold, wet, or windy it might be!

Date:

Astronomy

Apr. 15, 2013 Rise Set
Actual Time 6:13 AM CDT 7:44 PM CDT
Civil Twilight 5:42 AM CDT 8:14 PM CDT
Nautical Twilight 5:05 AM CDT 8:52 PM CDT
Astronomical Twilight 4:26 AM CDT 9:32 PM CDT
Moon 9:31 AM CDT (4/15) 12:03 AM CDT (4/15)
Length of Visible Light 14h 32m
Length of Day
13h 30m
Waxing Crescent, 25% of the Moon is Illuminated
Apr 15
Waxing Crescent
Apr 18
First Quarter
Apr 25
Full
May 2
Last Quarter
May 9
New

Hourly Weather History & Observations

Time (CDT) Temp. Windchill Dew Point Humidity Pressure Visibility Wind Dir Wind Speed Gust Speed Precip Events Conditions
12:54 AM 34.0 °F 31.0 °F 32.0 °F 92% 29.70 in 6.0 mi East 3.5 mph - 0.06 in Rain Light Rain
1:03 AM 33.8 °F 29.6 °F 32.0 °F 93% 29.63 in 6.0 mi East 4.6 mph - 0.02 in Rain Light Rain
1:54 AM 34.0 °F 28.8 °F 33.1 °F 96% 29.67 in 8.0 mi ESE 5.8 mph - 0.06 in Rain Light Rain
2:46 AM 33.8 °F 26.4 °F 33.8 °F 100% 29.58 in 10.0 mi ESE 9.2 mph - 0.05 in   Overcast
2:54 AM 34.0 °F 28.0 °F 33.1 °F 96% 29.63 in 10.0 mi East 6.9 mph - 0.05 in   Overcast
3:10 AM 33.8 °F 30.8 °F 33.8 °F 100% 29.59 in 9.0 mi SSE 3.5 mph - N/A   Overcast
3:54 AM 34.0 °F 29.8 °F 34.0 °F 100% 29.66 in 4.0 mi South 4.6 mph - 0.00 in Rain Light Rain
4:09 AM 33.8 °F 30.8 °F 33.8 °F 100% 29.63 in 5.0 mi SW 3.5 mph - 0.00 in   Overcast
4:38 AM 33.8 °F - 33.8 °F 100% 29.63 in 5.0 mi Calm Calm - 0.00 in   Overcast
4:54 AM 34.0 °F 31.0 °F 32.0 °F 92% 29.68 in 5.0 mi ENE 3.5 mph - 0.00 in   Overcast
5:47 AM 33.8 °F 30.8 °F 33.8 °F 100% 29.63 in 1.8 mi ENE 3.5 mph - N/A   Overcast
5:54 AM 34.0 °F 31.0 °F 33.1 °F 96% 29.68 in 0.5 mi East 3.5 mph - N/A Fog Fog
6:54 AM 34.0 °F 28.8 °F 34.0 °F 100% 29.68 in 0.2 mi South 5.8 mph - N/A Fog Fog
7:54 AM 34.0 °F 28.0 °F 34.0 °F 100% 29.69 in 0.2 mi South 6.9 mph - N/A Fog Fog
8:54 AM 34.0 °F 28.8 °F 34.0 °F 100% 29.70 in 0.2 mi South 5.8 mph - N/A Fog Fog
9:18 AM 35.6 °F 30.7 °F 35.6 °F 100% 29.67 in 1.8 mi South 5.8 mph - N/A   Overcast
9:23 AM 35.6 °F 30.7 °F 33.8 °F 93% 29.67 in 3.0 mi South 5.8 mph - N/A   Overcast
9:42 AM 35.6 °F 30.7 °F 35.6 °F 100% 29.66 in 8.0 mi SSW 5.8 mph - N/A   Mostly Cloudy
9:54 AM 36.0 °F 32.1 °F 35.1 °F 97% 29.71 in 9.0 mi South 4.6 mph - N/A   Mostly Cloudy
10:54 AM 39.0 °F 31.0 °F 34.0 °F 82% 29.70 in 10.0 mi SSW 13.8 mph 19.6 mph N/A   Clear
11:54 AM 43.0 °F 34.0 °F 33.1 °F 68% 29.73 in 10.0 mi SW 21.9 mph 28.8 mph N/A   Mostly Cloudy
12:54 PM 46.9 °F - 30.9 °F 54% 29.73 in 10.0 mi SW 18.4 mph 31.1 mph 0.02 in   Mostly Cloudy
1:54 PM 46.0 °F 38.3 °F 28.0 °F 50% 29.76 in 10.0 mi WSW 20.7 mph 26.5 mph N/A   Clear
2:54 PM 44.1 °F 35.4 °F 28.0 °F 53% 29.81 in 10.0 mi West 21.9 mph 26.5 mph N/A   Partly Cloudy
3:54 PM 42.1 °F 33.1 °F 27.0 °F 55% 29.83 in 10.0 mi West 20.7 mph 28.8 mph N/A   Clear
4:54 PM 43.0 °F 34.2 °F 28.0 °F 56% 29.83 in 10.0 mi West 20.7 mph 28.8 mph N/A   Partly Cloudy
5:54 PM 41.0 °F 33.5 °F 27.0 °F 57% 29.86 in 10.0 mi WSW 13.8 mph 24.2 mph N/A   Overcast
6:54 PM 39.0 °F 33.4 °F 27.0 °F 62% 29.87 in 10.0 mi WSW 8.1 mph - N/A   Overcast
7:54 PM 37.9 °F 30.9 °F 27.0 °F 65% 29.88 in 10.0 mi West 10.4 mph - N/A   Mostly Cloudy
8:54 PM 37.0 °F 31.0 °F 26.1 °F 65% 29.88 in 10.0 mi West 8.1 mph 17.3 mph N/A   Overcast
9:54 PM 36.0 °F 28.0 °F 25.0 °F 64% 29.91 in 10.0 mi West 11.5 mph 20.7 mph N/A   Overcast
10:54 PM 36.0 °F 29.0 °F 25.0 °F 64% 29.92 in 10.0 mi WSW 9.2 mph - N/A   Mostly Cloudy
11:54 PM 35.1 °F 29.3 °F 25.0 °F 67% 29.94 in 10.0 mi WSW 6.9 mph - N/A   Overcast